timestamp,wind_dir_avg,wind_spd_avg,wind_spd_max_dir,wind_spd_gust,battery_voltage,lat,long
2023-06-02 00:04:00+00:00,69.0,4.02,75.0,4.61,12.97,47.59359,-54.27349
2023-06-02 00:14:01+00:00,69.0,4.35,73.0,5.1,12.41,47.59359,-54.27349
2023-06-02 00:24:01+00:00,61.0,4.73,60.0,5.32,12.41,47.59359,-54.27349
2023-06-02 00:34:01+00:00,58.0,3.7,55.0,4.12,12.41,47.59359,-54.27349
2023-06-02 00:44:01+00:00,66.0,2.78,67.0,3.33,12.41,47.59359,-54.27349
2023-06-02 00:54:01+00:00,68.0,4.31,69.0,4.7,12.41,47.59359,-54.27349
2023-06-02 01:04:01+00:00,75.0,3.32,84.0,4.34,12.41,47.59359,-54.27349
2023-06-02 01:14:00+00:00,81.0,2.93,100.0,3.96,12.41,47.59359,-54.27349
2023-06-02 01:24:00+00:00,88.0,3.05,84.0,4.44,12.41,47.59359,-54.27349
2023-06-02 01:34:00+00:00,51.0,2.82,53.0,3.32,12.41,47.59359,-54.27349
2023-06-02 01:44:00+00:00,58.0,4.69,61.0,4.93,12.41,47.59359,-54.27349
2023-06-02 01:54:00+00:00,45.0,3.33,47.0,3.75,12.41,47.59359,-54.27349
2023-06-02 02:04:00+00:00,40.0,4.54,42.0,4.92,12.41,47.59359,-54.27349
2023-06-02 02:14:00+00:00,18.0,3.09,15.0,3.54,12.41,47.59359,-54.27349
2023-06-02 02:24:00+00:00,357.0,3.78,350.0,4.12,12.41,47.59359,-54.27349
2023-06-02 02:34:00+00:00,32.0,3.62,32.0,3.84,12.41,47.59359,-54.27349
2023-06-02 02:44:00+00:00,20.0,3.18,21.0,3.61,12.41,47.59359,-54.27349
2023-06-02 02:54:00+00:00,20.0,3.75,19.0,3.94,12.41,47.59359,-54.27349
2023-06-02 03:04:00+00:00,14.0,3.33,12.0,3.78,12.41,47.59359,-54.27349
2023-06-02 03:14:00+00:00,10.0,3.73,9.0,4.03,12.41,47.59359,-54.27349
2023-06-02 03:24:00+00:00,26.0,3.25,26.0,3.67,12.41,47.59359,-54.27349
2023-06-02 03:34:00+00:00,40.0,3.91,42.0,4.38,12.41,47.59359,-54.27349
2023-06-02 03:44:00+00:00,51.0,3.91,50.0,4.29,12.41,47.59359,-54.27349
2023-06-02 03:54:00+00:00,59.0,4.03,58.0,4.57,12.41,47.59359,-54.27349
2023-06-02 04:04:00+00:00,57.0,4.31,56.0,4.54,12.41,47.59359,-54.27349
2023-06-02 04:14:00+00:00,56.0,3.43,58.0,3.67,12.33,47.59359,-54.27349
2023-06-02 04:24:00+00:00,62.0,2.11,59.0,2.42,12.33,47.59359,-54.27349
2023-06-02 04:34:00+00:00,68.0,1.88,68.0,2.52,12.33,47.59359,-54.27349
2023-06-02 04:44:00+00:00,78.0,3.25,75.0,4.01,12.33,47.59359,-54.27349
2023-06-02 04:54:00+00:00,32.0,2.27,30.0,2.49,12.33,47.59359,-54.27349
2023-06-02 05:04:00+00:00,38.0,2.76,42.0,2.9,12.33,47.59359,-54.27349
2023-06-02 05:14:00+00:00,27.0,2.62,35.0,3.09,12.33,47.59359,-54.27349
2023-06-02 05:24:00+00:00,21.0,3.35,21.0,3.75,12.33,47.59359,-54.27349
2023-06-02 05:34:00+00:00,47.0,3.7,47.0,3.99,12.33,47.59359,-54.27349
2023-06-02 05:44:00+00:00,45.0,2.97,44.0,3.26,12.33,47.59359,-54.27349
2023-06-02 05:54:00+00:00,58.0,3.14,62.0,3.44,12.33,47.59359,-54.27349
2023-06-02 06:04:00+00:00,59.0,3.57,57.0,4.01,12.33,47.59359,-54.27349
2023-06-02 06:14:00+00:00,49.0,3.05,50.0,3.33,12.33,47.59359,-54.27349
2023-06-02 06:24:00+00:00,51.0,3.24,52.0,3.54,12.33,47.59359,-54.27349
2023-06-02 06:34:00+00:00,50.0,3.5,63.0,4.01,12.33,47.59359,-54.27349
2023-06-02 06:44:00+00:00,50.0,4.11,61.0,5.52,12.33,47.59359,-54.27349
2023-06-02 06:54:00+00:00,44.0,3.88,59.0,5.27,12.33,47.59359,-54.27349
2023-06-02 07:04:00+00:00,36.0,4.84,36.0,5.12,12.33,47.59359,-54.27349
2023-06-02 07:14:01+00:00,27.0,4.77,30.0,5.16,12.25,47.59359,-54.27349
2023-06-02 07:24:01+00:00,20.0,4.67,18.0,5.23,12.25,47.59359,-54.27349
2023-06-02 07:34:01+00:00,33.0,4.89,33.0,5.27,12.25,47.59359,-54.27349
2023-06-02 07:44:01+00:00,39.0,4.93,48.0,5.73,12.25,47.59359,-54.27349
2023-06-02 07:54:01+00:00,38.0,4.19,37.0,4.52,12.25,47.59359,-54.27349
2023-06-02 08:04:01+00:00,40.0,4.11,41.0,4.43,12.25,47.59359,-54.27349
2023-06-02 08:14:01+00:00,47.0,4.15,44.0,4.49,12.25,47.59359,-54.27349
2023-06-02 08:24:01+00:00,57.0,3.91,57.0,4.21,12.25,47.59359,-54.27349
2023-06-02 08:34:01+00:00,49.0,4.05,48.0,4.43,12.25,47.59359,-54.27349
2023-06-02 08:44:01+00:00,42.0,4.38,44.0,4.97,12.25,47.59359,-54.27349
2023-06-02 08:54:01+00:00,51.0,4.69,49.0,5.13,12.25,47.59359,-54.27349
2023-06-02 09:04:01+00:00,46.0,5.1,45.0,5.66,12.25,47.59359,-54.27349
2023-06-02 09:14:01+00:00,48.0,5.08,47.0,5.36,12.33,47.59359,-54.27349
2023-06-02 09:24:01+00:00,38.0,5.2,41.0,5.68,12.33,47.59359,-54.27349
2023-06-02 09:34:01+00:00,42.0,5.53,41.0,5.97,12.33,47.59359,-54.27349
2023-06-02 09:44:01+00:00,45.0,4.38,57.0,5.61,12.33,47.59359,-54.27349
2023-06-02 09:54:01+00:00,59.0,5.14,66.0,6.32,12.33,47.59359,-54.27349
2023-06-02 10:04:01+00:00,51.0,4.18,54.0,4.61,12.33,47.59359,-54.27349
2023-06-02 10:14:00+00:00,54.0,4.28,51.0,4.6,13.13,47.59359,-54.27349
2023-06-02 10:24:00+00:00,52.0,4.17,50.0,4.37,13.13,47.59359,-54.27349
2023-06-02 10:34:00+00:00,45.0,4.27,38.0,4.74,13.13,47.59359,-54.27349
2023-06-02 10:44:00+00:00,59.0,3.42,73.0,5.11,13.13,47.59359,-54.27349
2023-06-02 10:54:00+00:00,41.0,4.77,37.0,5.62,13.13,47.59359,-54.27349
2023-06-02 11:04:00+00:00,48.0,4.81,45.0,5.47,13.13,47.59359,-54.27349
2023-06-02 11:14:00+00:00,52.0,4.29,56.0,4.66,13.29,47.59359,-54.27349
2023-06-02 11:24:00+00:00,53.0,4.66,53.0,4.92,13.29,47.59359,-54.27349
2023-06-02 11:34:00+00:00,56.0,4.26,55.0,4.97,13.29,47.59359,-54.27349
2023-06-02 11:44:00+00:00,46.0,4.27,45.0,4.54,13.29,47.59359,-54.27349
2023-06-02 11:54:00+00:00,48.0,3.81,42.0,4.34,13.29,47.59359,-54.27349
2023-06-02 12:04:00+00:00,45.0,3.86,44.0,4.1,13.29,47.59359,-54.27349
2023-06-02 12:14:00+00:00,38.0,3.63,49.0,4.12,13.68,47.59359,-54.27349
2023-06-02 12:24:00+00:00,32.0,4.0,33.0,4.28,13.68,47.59359,-54.27349
2023-06-02 12:34:00+00:00,37.0,4.0,38.0,4.25,13.68,47.59359,-54.27349
2023-06-02 12:44:00+00:00,37.0,3.71,38.0,3.86,13.68,47.59359,-54.27349
2023-06-02 12:54:00+00:00,36.0,3.45,37.0,3.75,13.68,47.59359,-54.27349
2023-06-02 13:04:00+00:00,48.0,2.92,48.0,3.47,13.68,47.59359,-54.27349
2023-06-02 13:14:00+00:00,54.0,2.94,46.0,4.05,13.68,47.59359,-54.27349
2023-06-02 13:24:00+00:00,49.0,4.55,52.0,5.07,13.68,47.59359,-54.27349
2023-06-02 13:34:00+00:00,49.0,4.57,49.0,5.01,13.68,47.59359,-54.27349
2023-06-02 13:44:00+00:00,59.0,3.39,62.0,3.84,13.68,47.59359,-54.27349
2023-06-02 13:54:00+00:00,53.0,4.25,49.0,4.79,13.68,47.59359,-54.27349
2023-06-02 14:04:00+00:00,65.0,4.85,66.0,5.18,13.68,47.59359,-54.27349
2023-06-02 14:14:00+00:00,65.0,4.1,65.0,4.43,13.68,47.59359,-54.27349
2023-06-02 14:24:00+00:00,62.0,4.04,65.0,4.52,13.68,47.59359,-54.27349
2023-06-02 14:34:00+00:00,54.0,4.25,57.0,4.59,13.68,47.59359,-54.27349
2023-06-02 14:44:00+00:00,51.0,4.58,51.0,4.72,13.68,47.59359,-54.27349
2023-06-02 14:54:00+00:00,57.0,4.79,56.0,5.45,13.68,47.59359,-54.27349
2023-06-02 15:04:00+00:00,49.0,4.57,47.0,5.18,13.68,47.59359,-54.27349
2023-06-02 15:14:00+00:00,50.0,3.89,52.0,4.61,13.68,47.59359,-54.27349
2023-06-02 15:24:00+00:00,39.0,4.82,39.0,5.18,13.68,47.59359,-54.27349
2023-06-02 15:34:00+00:00,34.0,4.41,36.0,4.92,13.68,47.59359,-54.27349
2023-06-02 15:44:00+00:00,33.0,4.98,35.0,5.45,13.68,47.59359,-54.27349
2023-06-02 15:54:00+00:00,34.0,5.54,35.0,6.22,13.68,47.59359,-54.27349
2023-06-02 16:04:00+00:00,35.0,5.57,35.0,6.1,13.68,47.59359,-54.27349
2023-06-02 16:14:00+00:00,34.0,5.78,34.0,6.25,13.84,47.59359,-54.27349
2023-06-02 16:24:00+00:00,34.0,5.8,33.0,6.28,13.84,47.59359,-54.27349
2023-06-02 16:34:00+00:00,31.0,5.95,33.0,6.26,13.84,47.59359,-54.27349
2023-06-02 16:44:00+00:00,36.0,5.49,36.0,5.86,13.84,47.59359,-54.27349
2023-06-02 16:54:00+00:00,44.0,5.2,44.0,5.64,13.84,47.59359,-54.27349
2023-06-02 17:04:00+00:00,61.0,4.94,60.0,5.43,13.84,47.59359,-54.27349
2023-06-02 17:14:00+00:00,56.0,4.84,53.0,5.51,14.32,47.59359,-54.27349
2023-06-02 17:24:00+00:00,50.0,5.09,48.0,5.5,14.32,47.59359,-54.27349
2023-06-02 17:34:00+00:00,50.0,4.68,47.0,5.08,14.32,47.59359,-54.27349
2023-06-02 17:44:00+00:00,64.0,4.57,55.0,5.77,14.32,47.59359,-54.27349
2023-06-02 17:54:00+00:00,40.0,3.97,43.0,4.5,14.32,47.59359,-54.27349
2023-06-02 18:04:00+00:00,50.0,4.81,45.0,6.37,14.32,47.59359,-54.27349
2023-06-02 18:14:00+00:00,60.0,3.56,58.0,4.04,13.68,47.59359,-54.27349
2023-06-02 18:24:00+00:00,57.0,5.07,62.0,5.75,13.68,47.59359,-54.27349
2023-06-02 18:34:00+00:00,51.0,6.11,46.0,6.96,13.68,47.59359,-54.27349
2023-06-02 18:44:00+00:00,46.0,7.7,45.0,8.49,13.68,47.59359,-54.27349
2023-06-02 18:54:00+00:00,44.0,7.76,40.0,8.69,13.68,47.59359,-54.27349
2023-06-02 19:04:00+00:00,39.0,8.08,44.0,9.01,13.68,47.59359,-54.27349
2023-06-02 19:14:00+00:00,38.0,9.45,38.0,10.76,13.68,47.59359,-54.27349
2023-06-02 19:24:00+00:00,37.0,8.74,33.0,9.73,13.68,47.59359,-54.27349
2023-06-02 19:34:00+00:00,37.0,8.47,38.0,9.43,13.68,47.59359,-54.27349
2023-06-02 19:44:00+00:00,38.0,8.75,36.0,9.87,13.68,47.59359,-54.27349
2023-06-02 19:54:00+00:00,38.0,9.95,36.0,10.8,13.68,47.59359,-54.27349
2023-06-02 20:04:00+00:00,45.0,9.29,47.0,10.41,13.68,47.59359,-54.27349
2023-06-02 20:14:00+00:00,40.0,9.12,40.0,10.02,13.68,47.59359,-54.27349
2023-06-02 20:24:00+00:00,39.0,8.33,36.0,9.23,13.68,47.59359,-54.27349
2023-06-02 20:34:00+00:00,42.0,7.54,43.0,8.57,13.68,47.59359,-54.27349
2023-06-02 20:44:00+00:00,50.0,7.64,50.0,8.61,13.68,47.59359,-54.27349
2023-06-02 20:54:00+00:00,43.0,7.64,44.0,8.17,13.68,47.59359,-54.27349
2023-06-02 21:04:00+00:00,50.0,7.04,48.0,7.77,13.68,47.59359,-54.27349
2023-06-02 21:14:00+00:00,54.0,6.21,50.0,6.76,13.44,47.59359,-54.27349
2023-06-02 21:24:00+00:00,54.0,5.86,52.0,6.49,13.44,47.59359,-54.27349
2023-06-02 21:34:00+00:00,49.0,6.5,48.0,7.07,13.44,47.59359,-54.27349
2023-06-02 21:44:00+00:00,47.0,6.94,47.0,7.63,13.44,47.59359,-54.27349
2023-06-02 21:54:00+00:00,50.0,6.29,50.0,6.92,13.44,47.59359,-54.27349
2023-06-02 22:04:00+00:00,52.0,7.34,53.0,8.35,13.44,47.59359,-54.27349
2023-06-02 22:14:01+00:00,53.0,7.97,52.0,8.51,13.05,47.59359,-54.27349
2023-06-02 22:24:01+00:00,53.0,7.23,55.0,7.91,13.05,47.59359,-54.27349
2023-06-02 22:34:01+00:00,53.0,6.56,54.0,7.14,13.05,47.59359,-54.27349
2023-06-02 22:44:01+00:00,52.0,6.01,52.0,6.76,13.05,47.59359,-54.27349
2023-06-02 22:54:01+00:00,59.0,6.5,62.0,7.44,13.05,47.59359,-54.27349
2023-06-02 23:04:01+00:00,55.0,6.54,53.0,7.15,13.05,47.59359,-54.27349
2023-06-02 23:14:01+00:00,44.0,5.45,42.0,5.92,12.57,47.59359,-54.27349
2023-06-02 23:24:01+00:00,46.0,6.59,41.0,7.4,12.57,47.59359,-54.27349
2023-06-02 23:34:01+00:00,44.0,6.72,45.0,7.46,12.57,47.59359,-54.27349
2023-06-02 23:44:01+00:00,34.0,5.08,33.0,5.54,12.57,47.59359,-54.27349
2023-06-02 23:54:01+00:00,29.0,6.22,25.0,7.0,12.57,47.59359,-54.27349
